WX4F Weather Reports


Display with metric or nautical units.
time (UTC)temp
F
wind
direction
speed
MPH
gust
MPH
rain 1hr
in
rain 24hr
in
rain mn
in
humidity
%
barometer
mb
20260503050005 38 275 0.0 0.0 0.00 0.00 0.00 88 1018.0
20260503045503 39 275 0.0 0.0 0.00 0.00 0.00 88 1017.9
20260503044504 39 275 0.0 0.0 0.00 0.00 0.00 87 1017.8
20260503044004 39 275 0.0 0.0 0.00 0.00 0.00 87 1017.7
20260503043503 39 275 0.0 0.0 0.00 0.00 0.00 87 1017.6
20260503043004 39 275 0.0 0.0 0.00 0.00 0.00 87 1017.5
20260503042504 39 275 0.0 0.0 0.00 0.00 0.00 86 1017.5
20260503041503 40 275 0.0 0.0 0.00 0.00 0.00 85 1017.5
20260503041003 40 275 0.0 0.0 0.00 0.00 0.00 85 1017.5
20260503040503 40 275 0.0 0.0 0.00 0.00 0.00 84 1017.5
20260503040005 40 275 0.0 0.0 0.00 0.00 0.00 84 1017.4
20260503035503 40 275 0.0 0.0 0.00 0.00 0.00 83 1017.3
20260503035004 40 275 0.0 0.0 0.00 0.00 0.00 83 1017.5
20260503034504 41 275 0.0 0.0 0.00 0.00 0.00 82 1017.4
20260503034004 41 275 0.0 0.0 0.00 0.00 0.00 83 1017.3
20260503033503 41 275 0.0 0.0 0.00 0.00 0.00 82 1017.3
20260503033004 41 275 0.0 0.0 0.00 0.00 0.00 82 1017.2
20260503032504 41 275 0.0 0.0 0.00 0.00 0.00 81 1017.1
20260503032005 42 275 0.0 0.0 0.00 0.00 0.00 81 1017.1
20260503031503 42 275 0.0 0.0 0.00 0.00 0.00 81 1017.0
20260503031004 42 275 0.0 0.0 0.00 0.00 0.00 79 1017.0
20260503030504 42 275 0.0 0.0 0.00 0.00 0.00 79 1017.1
20260503030004 43 275 0.0 0.0 0.00 0.00 0.00 78 1017.0
20260503024504 43 275 0.0 0.0 0.00 0.00 0.00 76 1016.9
20260503024004 44 275 0.0 0.0 0.00 0.00 0.00 77 1016.9
20260503023504 44 275 0.0 0.0 0.00 0.00 0.00 76 1016.9
20260503023004 45 275 0.0 0.0 0.00 0.00 0.00 75 1016.8
20260503022504 45 275 0.0 0.0 0.00 0.00 0.00 73 1016.7
20260503022004 46 275 0.0 0.0 0.00 0.00 0.00 69 1016.6
20260503021004 46 275 0.0 0.0 0.00 0.00 0.00 69 1016.6
20260503020504 46 275 0.0 0.0 0.00 0.00 0.00 67 1016.5
20260503020004 47 275 0.0 0.0 0.00 0.00 0.00 69 1016.5
20260503015503 47 275 0.0 0.0 0.00 0.00 0.00 67 1016.4
20260503015003 47 275 0.0 0.0 0.00 0.00 0.00 68 1016.4
20260503014503 48 275 0.0 0.0 0.00 0.00 0.00 64 1016.3
20260503014004 48 275 0.0 0.0 0.00 0.00 0.00 63 1016.2
20260503013004 49 275 0.0 0.0 0.00 0.00 0.00 62 1016.2
20260503012504 50 275 0.0 0.0 0.00 0.00 0.00 60 1016.1
20260503012004 50 275 0.0 0.0 0.00 0.00 0.00 59 1016.0
20260503010504 52 275 0.0 0.0 0.00 0.00 0.00 57 1015.8
20260503005504 52 275 0.0 1.0 0.00 0.00 0.00 57 1015.6
20260503005004 53 275 0.0 1.0 0.00 0.00 0.00 55 1015.6
20260503004504 53 275 0.0 2.0 0.00 0.00 0.00 54 1015.6
20260503004004 53 275 1.0 3.0 0.00 0.00 0.00 53 1015.5
20260503003503 54 275 0.0 1.0 0.00 0.00 0.00 54 1015.3
20260503003003 54 275 0.0 1.0 0.00 0.00 0.00 54 1015.2
20260503002504 54 275 0.0 1.0 0.00 0.00 0.00 55 1015.1
20260503002003 54 275 0.0 1.0 0.00 0.00 0.00 56 1015.0
20260503001503 54 275 0.0 1.0 0.00 0.00 0.00 54 1015.0
20260503000504 55 275 0.0 1.0 0.00 0.00 0.00 50 1014.9
20260503000004 56 275 0.0 1.0 0.00 0.00 0.00 50 1014.8
20260502235503 56 275 0.0 2.0 0.00 0.00 0.00 52 1014.7
20260502235003 56 292 1.0 2.0 0.00 0.00 0.00 51 1014.6
20260502234504 56 292 0.0 1.0 0.00 0.00 0.00 51 1014.5
20260502234004 57 244 0.0 2.0 0.00 0.00 0.00 51 1014.4
20260502233503 57 227 1.0 2.0 0.00 0.00 0.00 53 1014.4
20260502233004 57 205 0.0 1.0 0.00 0.00 0.00 52 1014.2
20260502232504 57 205 0.0 1.0 0.00 0.00 0.00 51 1014.2
20260502231503 57 205 0.0 2.0 0.00 0.00 0.00 53 1014.0
20260502230504 57 131 0.0 2.0 0.00 0.00 0.00 52 1013.8
20260502230003 57 205 0.0 1.0 0.00 0.00 0.00 50 1013.9
20260502225503 58 205 0.0 3.0 0.00 0.00 0.00 52 1013.8
20260502225003 58 123 0.0 2.0 0.00 0.00 0.00 51 1013.8
20260502224504 58 286 1.0 2.0 0.00 0.00 0.00 50 1013.8
20260502224004 58 286 1.0 3.0 0.00 0.00 0.00 51 1013.7
20260502223004 59 291 0.0 2.0 0.00 0.00 0.00 47 1013.6
20260502222503 59 290 0.0 2.0 0.00 0.00 0.00 46 1013.5
20260502222004 59 290 1.0 3.0 0.00 0.00 0.00 45 1013.4
20260502221504 60 303 1.0 3.0 0.00 0.00 0.00 49 1013.4
20260502221004 60 279 1.0 3.0 0.00 0.00 0.00 46 1013.3
20260502220504 60 297 1.0 3.0 0.00 0.00 0.00 48 1013.2
20260502220003 60 259 0.0 2.0 0.00 0.00 0.00 50 1013.2
20260502215004 60 278 0.0 3.0 0.00 0.00 0.00 49 1013.0
20260502214504 60 265 1.0 3.0 0.00 0.00 0.00 49 1012.9
20260502214004 61 259 1.0 3.0 0.00 0.00 0.00 49 1012.9
20260502213503 61 340 0.0 2.0 0.00 0.00 0.00 50 1012.8
20260502213005 61 63 0.0 1.0 0.00 0.00 0.00 46 1012.6
20260502212504 61 63 0.0 1.0 0.00 0.00 0.00 46 1012.6
20260502212004 61 63 0.0 3.0 0.00 0.00 0.00 47 1012.5
20260502211504 61 124 0.0 3.0 0.00 0.00 0.00 49 1012.4
20260502211004 62 119 1.0 3.0 0.00 0.00 0.00 43 1012.4
20260502210003 62 197 0.0 0.0 0.00 0.00 0.00 47 1012.4
20260502205004 63 227 0.0 2.0 0.00 0.00 0.00 43 1012.3
20260502204503 63 227 1.0 2.0 0.00 0.00 0.00 39 1012.3
20260502204003 63 17 0.0 2.0 0.00 0.00 0.00 40 1012.3
20260502203503 63 150 0.0 2.0 0.00 0.00 0.00 40 1012.3
20260502202503 63 148 1.0 3.0 0.00 0.00 0.00 43 1012.4
20260502201503 63 126 0.0 2.0 0.00 0.00 0.00 41 1012.5
20260502201004 63 343 0.0 2.0 0.00 0.00 0.00 46 1012.5
20260502200503 64 100 1.0 3.0 0.00 0.00 0.00 43 1012.6
20260502200004 63 139 0.0 3.0 0.00 0.00 0.00 44 1012.7
20260502195504 63 128 0.0 2.0 0.00 0.00 0.00 45 1012.8
20260502195004 62 76 1.0 3.0 0.00 0.00 0.00 40 1012.8
20260502194504 62 87 1.0 3.0 0.00 0.00 0.00 41 1012.9
20260502194005 61 229 0.0 2.0 0.00 0.00 0.00 49 1013.0
20260502193004 61 136 1.0 3.0 0.00 0.00 0.00 49 1013.3
20260502192504 61 218 1.0 3.0 0.00 0.00 0.00 46 1013.4
20260502191503 60 235 0.0 3.0 0.00 0.00 0.00 48 1013.4
20260502185504 59 225 1.0 3.0 0.00 0.00 0.00 49 1013.6
20260502185004 59 32 1.0 3.0 0.00 0.00 0.00 50 1013.6
20260502184003 60 228 0.0 2.0 0.00 0.00 0.00 51 1013.7
20260502183503 58 229 2.0 5.0 0.00 0.00 0.00 49 1013.8
20260502183004 58 143 1.0 3.0 0.00 0.00 0.00 49 1013.8
20260502182004 59 178 1.0 2.0 0.00 0.00 0.00 54 1014.0
20260502181503 57 243 0.0 1.0 0.00 0.00 0.00 53 1014.1
20260502181003 57 228 1.0 3.0 0.00 0.00 0.00 49 1014.1
20260502180504 57 246 1.0 2.0 0.00 0.00 0.00 50 1014.2
20260502164004 54 172 0.0 0.0 0.00 0.00 0.00 56 1015.7
20260502163003 55 172 0.0 1.0 0.00 0.00 0.00 57 1016.0
20260502162504 55 172 0.0 1.0 0.00 0.00 0.00 55 1016.0
20260502162004 54 61 1.0 2.0 0.00 0.00 0.00 53 1016.0
20260502161504 54 63 1.0 3.0 0.00 0.00 0.00 54 1016.0
20260502161003 53 212 1.0 2.0 0.00 0.00 0.00 56 1016.0
20260502160503 53 136 0.0 1.0 0.00 0.00 0.00 58 1016.1
20260502152004 50 178 0.0 0.0 0.00 0.00 0.00 73 1016.3
20260502151504 50 178 0.0 0.0 0.00 0.00 0.00 72 1016.5
20260502151004 50 178 0.0 0.0 0.00 0.00 0.00 75 1016.3
20260502150504 50 178 0.0 0.0 0.00 0.00 0.00 72 1016.0
20260502130504 50 148 0.0 0.0 0.00 0.00 0.00 82 1015.6
20260502122503 51 148 0.0 0.0 0.00 0.00 0.00 91 1014.9
20260502122004 51 148 0.0 0.0 0.00 0.00 0.00 91 1015.0
20260502121503 51 148 0.0 0.0 0.00 0.00 0.00 91 1014.9
20260502120503 50 148 0.0 0.0 0.00 0.00 0.00 91 1015.0
20260502115505 50 148 0.0 0.0 0.00 0.00 0.00 90 1015.1
20260502115003 49 148 0.0 0.0 0.00 0.00 0.00 90 1015.1
20260502114503 49 148 0.0 0.0 0.00 0.00 0.00 91 1015.1
20260502114003 49 148 0.0 0.0 0.00 0.00 0.00 91 1015.0
20260502113504 49 148 0.0 0.0 0.00 0.00 0.00 91 1015.0
20260502113004 49 148 0.0 0.0 0.00 0.00 0.00 91 1015.0
20260502112504 49 148 0.0 0.0 0.00 0.00 0.00 91 1014.8
20260502111504 49 148 0.0 0.0 0.00 0.00 0.00 91 1014.8
20260502111003 49 148 0.0 0.0 0.00 0.00 0.00 91 1014.7
20260502110004 49 148 0.0 0.0 0.00 0.00 0.00 92 1014.8
20260502105503 48 148 0.0 0.0 0.00 0.00 0.00 92 1014.8
20260502104503 48 148 0.0 0.0 0.00 0.00 0.00 92 1014.7
20260502104003 48 148 0.0 0.0 0.00 0.00 0.00 91 1014.7
20260502103504 49 148 0.0 0.0 0.00 0.00 0.00 92 1014.6
20260502103004 48 148 0.0 0.0 0.00 0.00 0.00 91 1014.5
20260502102504 49 148 0.0 0.0 0.00 0.00 0.00 91 1014.4
20260502101503 49 148 0.0 0.0 0.00 0.00 0.00 92 1014.8
20260502100504 49 148 0.0 0.0 0.00 0.00 0.00 92 1014.8
20260502091503 49 148 0.0 0.0 0.00 0.00 0.00 92 1014.8
20260502091004 50 148 0.0 0.0 0.00 0.00 0.00 92 1014.8
20260502090504 50 148 0.0 0.0 0.00 0.00 0.00 93 1014.6
20260502071505 50 148 0.0 0.0 0.00 0.00 0.00 93 1013.6
20260502071004 50 148 0.0 0.0 0.00 0.00 0.00 93 1013.6
20260502070504 50 148 0.0 0.0 0.00 0.00 0.00 93 1013.7
20260502070004 50 148 0.0 0.0 0.00 0.00 0.00 92 1013.7
20260502065504 50 148 0.0 0.0 0.00 0.00 0.00 92 1013.7
20260502065004 50 148 0.0 0.0 0.00 0.00 0.00 92 1013.8
20260502064504 50 148 0.0 0.0 0.00 0.00 0.00 92 1013.9
20260502064003 50 148 0.0 0.0 0.00 0.00 0.00 92 1013.9
20260502063504 50 148 0.0 0.0 0.00 0.00 0.00 92 1014.0
20260502063004 50 148 0.0 0.0 0.00 0.00 0.00 92 1014.2
20260502062503 50 148 0.0 0.0 0.00 0.00 0.00 91 1014.2
20260502062004 51 148 0.0 0.0 0.00 0.00 0.00 91 1014.2
20260502061004 51 148 0.0 0.0 0.00 0.00 0.00 91 1014.3
20260502060004 51 148 0.0 0.0 0.00 0.00 0.00 91 1014.4
20260502055504 51 148 0.0 0.0 0.00 0.00 0.00 90 1014.3
20260502055004 51 148 0.0 0.0 0.00 0.00 0.00 90 1014.3
20260502054504 51 148 0.0 0.0 0.00 0.00 0.00 90 1014.3
20260502053504 51 148 0.0 0.0 0.00 0.00 0.00 90 1014.4
20260502053004 52 148 0.0 0.0 0.00 0.00 0.00 89 1014.5
20260502052504 52 148 0.0 0.0 0.00 0.00 0.00 89 1014.4
20260502052004 52 148 0.0 0.0 0.00 0.00 0.00 89 1014.4
20260502051504 52 148 0.0 0.0 0.00 0.00 0.00 88 1014.3
20260502051004 52 148 0.0 0.0 0.00 0.00 0.00 88 1014.4
20260502050504 52 148 0.0 0.0 0.00 0.00 0.00 88 1014.4